{"data":{"norad_id":58853,"epoch":"2026-09-20T08:04:36.650784Z","epoch_age_seconds":166614,"freshness":"FRESH","line1":"1 58853U 24019A   26263.33653531  .00000558  00000+0  29799-4 0  9990","line2":"2 58853  43.0016 229.4368 0000852 274.4305  85.6449 15.27576447148859","mean_motion":15.27576447,"eccentricity":8.52e-5,"inclination_deg":43.0016,"raan_deg":229.4368,"arg_perigee_deg":274.4305,"mean_anomaly_deg":85.6449,"bstar":2.9799e-5,"rev_number":14885,"period_min":94.266967969296,"perigee_km":482.47516105864,"apogee_km":483.64430898228,"semimajor_km":6861.1967350205,"source":"CELESTRAK","updated_at":"2026-09-21T09:00:33.986895Z"}}